QPF
0.00 0.00 0.00 0.00 0.00 0.00 0.00 0.00 0.00 0.00 0.00 0.00 0.00 0.00 0.00 0.00 0.00 0.00 0.00 0.00 0.00 0.00 0.00 0.00 0.00 0.00 0.00 0.00 0.00 0.00 0.00 0.00 0.00 0.00 0.00 0.00 0.00 0.00 0.00 0.00 0.00 0.00 0.00 0.00
0.00 0.00 0.00 0.00 0.00 0.00 0.00 0.00 0.00 0.00 0.00 0.00 0.00 0.00 0.00 0.00 0.00 0.00 0.00 0.00 0.00 0.00 0.00 0.00 0.00 0.00 0.00 0.00 0.00 0.00 0.00 0.00 0.00 0.00 0.00 0.01 0.02 0.02 0.01 0.01 0.01 0.00 0.00 0.00
0.00 0.00 0.00 0.00 0.00 0.00 0.00 0.00 0.00 0.00 0.00 0.00 0.00 0.00 0.00 0.00 0.00 0.00 0.00 0.00 0.00 0.00 0.00 0.00 0.00 0.00 0.00 0.00 0.00 0.00 0.00 0.00 0.00 0.00 0.00 0.00 0.00 0.00 0.00 0.00 0.00 0.00 0.00 0.00
0.00 0.00 0.00 0.00 0.00 0.00 0.00 0.00 0.00 0.00 0.00 0.00 0.00 0.00 0.00 0.00 0.00 0.00 0.00 0.00 0.00 0.00 0.00 0.00 0.00 0.00 0.00 0.00 0.00 0.00 0.00 0.00 0.00 0.00 0.00 0.00 0.00 0.00 0.00 0.00 0.00 0.00 0.00 0.00
0.00 0.00 0.00 0.00 0.00 0.00 0.00 0.00 0.00 0.00 0.00 0.00 0.00 0.00 0.00 0.00 0.00 0.01 0.02 0.02 0.00 0.00 0.00 0.00 0.00 0.00 0.00 0.00 0.00 0.00 0.00 0.00 0.00 0.00 0.00 0.00 0.00 0.00 0.00 0.00 0.00 0.00 0.00 0.00
0.00 0.00 0.00 0.00 0.00 0.00 0.00 0.00 0.00 0.00 0.00 0.00 0.00 0.00 0.00 0.00 0.03 0.03 0.01 0.00 0.00 0.00 0.00 0.00 0.00 0.00 0.00 0.00 0.00 0.00 0.00 0.00 0.00 0.00 0.00 0.00 0.00 0.00 0.00 0.00 0.00 0.00 0.00 0.00
0.00 0.00 0.00 0.00 0.00 0.00 0.00 0.00 0.00 0.00 0.00 0.00 0.01 0.02 0.01 0.03 0.02 0.00 0.00 0.00 0.00 0.00 0.00 0.00 0.00 0.00 0.00 0.00 0.00 0.00 0.00 0.00 0.00 0.00 0.00 0.00 0.00 0.00 0.00 0.00 0.00 0.00 0.00 0.00
0.00 0.01 0.00 0.00 0.00 0.00 0.00 0.00 0.00 0.00 0.00 0.00 0.01 0.01 0.00 0.00 0.00 0.00 0.00 0.00 0.00 0.00 0.00 0.00 0.00 0.00 0.00 0.00 0.00 0.00 0.00 0.00 0.00 0.00 0.00 0.00 0.00 0.00 0.00 0.00 0.00 0.00 0.00 0.00
0.00 0.00 0.00 0.00 0.00 0.00 0.00 0.00 0.00 0.00 0.02 0.05 0.02 0.01 0.00 0.00 0.00 0.00 0.00 0.00 0.00 0.00 0.00 0.00 0.00 0.00 0.00 0.01 0.00 0.00 0.00 0.00 0.00 0.00 0.00 0.00 0.00 0.00 0.00 0.00 0.00 0.00 0.00 0.00
0.00 0.00 0.00 0.00 0.00 0.00 0.00 0.00 0.01 0.08 0.11 0.04 0.01 0.01 0.00 0.00 0.00 0.00 0.00 0.00 0.00 0.00 0.00 0.00 0.00 0.00 0.00 0.00 0.00 0.00 0.00 0.00 0.00 0.00 0.00 0.00 0.00 0.00 0.00 0.00 0.00 0.00 0.00 0.00
0.01 0.00 0.00 0.00 0.00 0.00 0.04 0.12 0.17 0.10 0.01 0.01 0.00 0.00 0.00 0.00 0.00 0.00 0.00 0.00 0.00 0.00 0.00 0.00 0.00 0.00 0.00 0.00 0.00 0.00 0.00 0.00 0.00 0.00 0.00 0.00 0.00 0.00 0.00 0.00 0.00 0.00 0.00 0.00
0.00 0.01 0.03 0.03 0.03 0.09 0.12 0.09 0.04 0.00 0.00 0.00 0.00 0.00 0.00 0.00 0.00 0.00 0.00 0.00 0.00 0.00 0.00 0.00 0.00 0.00 0.00 0.00 0.00 0.00 0.00 0.00 0.00 0.00 0.00 0.00 0.00 0.00 0.00 0.00 0.00 0.00 0.00 0.00
0.01 0.02 0.03 0.02 0.04 0.06 0.05 0.01 0.00 0.00 0.00 0.00 0.00 0.00 0.00 0.00 0.00 0.00 0.00 0.00 0.00 0.00 0.00 0.00 0.00 0.00 0.00 0.00 0.00 0.00 0.00 0.00 0.00 0.00 0.00 0.00 0.00 0.00 0.00 0.00 0.00 0.00 0.00 0.00
0.01 0.00 0.00 0.01 0.00 0.00 0.00 0.00 0.00 0.00 0.00 0.00 0.00 0.00 0.00 0.00 0.00 0.00 0.00 0.00 0.00 0.00 0.00 0.00 0.00 0.00 0.00 0.00 0.00 0.00 0.00 0.00 0.00 0.00 0.00 0.00 0.00 0.00 0.00 0.00 0.00 0.00 0.00 0.00
0.00 0.00 0.00 0.00 0.00 0.00 0.00 0.00 0.00 0.00 0.00 0.00 0.00 0.00 0.00 0.00 0.00 0.00 0.00 0.00 0.00 0.00 0.00 0.00 0.00 0.00 0.00 0.00 0.00 0.00 0.00 0.00 0.00 0.00 0.00 0.00 0.00 0.00 0.00 0.00 0.00 0.00 0.00 0.00
0.00 0.00 0.00 0.00 0.00 0.00 0.00 0.00 0.00 0.00 0.00 0.00 0.00 0.00 0.00 0.00 0.00 0.00 0.00 0.00 0.00 0.00 0.00 0.00 0.00 0.00 0.00 0.00 0.00 0.00 0.00 0.00 0.00 0.00 0.00 0.00 0.00 0.00 0.00 0.00 0.00 0.00 0.00 0.00
0.00 0.00 0.00 0.00 0.00 0.00 0.00 0.00 0.00 0.00 0.00 0.00 0.00 0.00 0.00 0.00 0.00 0.00 0.00 0.00 0.00 0.00 0.00 0.00 0.00 0.00 0.00 0.00 0.00 0.00 0.00 0.00 0.00 0.00 0.00 0.00 0.00 0.00 0.00 0.00 0.00 0.00 0.00 0.00
0.00 0.00 0.00 0.00 0.00 0.00 0.00 0.00 0.00 0.00 0.00 0.00 0.00 0.00 0.00 0.00 0.00 0.00 0.00 0.00 0.00 0.00 0.00 0.00 0.00 0.00 0.00 0.00 0.00 0.00 0.00 0.00 0.00 0.00 0.00 0.00 0.00 0.00 0.00 0.00 0.00 0.00 0.00 0.00
0.00 0.00 0.00 0.00 0.00 0.00 0.00 0.00 0.00 0.00 0.00 0.00 0.00 0.00 0.00 0.00 0.00 0.00 0.00 0.00 0.00 0.00 0.00 0.00 0.00 0.00 0.00 0.00 0.00 0.00 0.00 0.00 0.00 0.00 0.00 0.00 0.00 0.00 0.00 0.00 0.00 0.00 0.00 0.00
0.00 0.00 0.00 0.00 0.00 0.00 0.00 0.00 0.00 0.00 0.00 0.00 0.00 0.00 0.00 0.00 0.00 0.01 0.01 0.00 0.00 0.00 0.00 0.00 0.00 0.00 0.00 0.00 0.00 0.00 0.01 0.00 0.00 0.00 0.00 0.00 0.00 0.00 0.00 0.00 0.00 0.00 0.00 0.00
0.00 0.00 0.00 0.00 0.00 0.00 0.00 0.00 0.00 0.00 0.00 0.00 0.00 0.00 0.00 0.01 0.02 0.02 0.01 0.00 0.00 0.00 0.00 0.00 0.00 0.00 0.00 0.00 0.00 0.00 0.00 0.00 0.00 0.00 0.00 0.00 0.00 0.00 0.00 0.00 0.00 0.00 0.00 0.00
0.00 0.00 0.00 0.00 0.00 0.00 0.00 0.00 0.00 0.00 0.00 0.00 0.00 0.00 0.01 0.01 0.03 0.02 0.01 0.00 0.00 0.00 0.00 0.00 0.00 0.00 0.00 0.00 0.00 0.00 0.00 0.00 0.00 0.00 0.00 0.00 0.00 0.00 0.00 0.00 0.00 0.00 0.00 0.00
0.00 0.00 0.00 0.00 0.00 0.00 0.00 0.00 0.00 0.00 0.00 0.00 0.00 0.00 0.01 0.01 0.02 0.01 0.00 0.00 0.00 0.00 0.00 0.00 0.00 0.00 0.00 0.00 0.00 0.00 0.00 0.01 0.00 0.00 0.00 0.00 0.00 0.00 0.00 0.00 0.00 0.00 0.00 0.00
0.00 0.00 0.00 0.00 0.00 0.00 0.00 0.00 0.00 0.00 0.00 0.00 0.00 0.02 0.02 0.01 0.00 0.00 0.00 0.00 0.00 0.00 0.00 0.00 0.00 0.00 0.00 0.00 0.00 0.00 0.00 0.00 0.00 0.00 0.00 0.00 0.00 0.00 0.00 0.00 0.00 0.00 0.00 0.00
0.00 0.00 0.00 0.00 0.00 0.00 0.00 0.00 0.00 0.00 0.00 0.01 0.02 0.01 0.01 0.00 0.00 0.00 0.00 0.00 0.00 0.00 0.00 0.00 0.00 0.00 0.00 0.00 0.01 0.01 0.00 0.00 0.00 0.00 0.00 0.00 0.00 0.00 0.00 0.00 0.00 0.00 0.00 0.00
0.00 0.00 0.00 0.00 0.00 0.00 0.00 0.00 0.01 0.00 0.01 0.01 0.00 0.01 0.01 0.00 0.00 0.00 0.00 0.00 0.00 0.00 0.00 0.00 0.00 0.00 0.00 0.00 0.00 0.00 0.01 0.00 0.00 0.00 0.00 0.00 0.00 0.00 0.00 0.00 0.00 0.00 0.00 0.00
0.00 0.00 0.00 0.00 0.00 0.00 0.00 0.00 0.01 0.01 0.01 0.02 0.01 0.01 0.00 0.00 0.00 0.00 0.00 0.00 0.00 0.00 0.00 0.00 0.00 0.00 0.00 0.00 0.00 0.00 0.00 0.00 0.01 0.01 0.01 0.00 0.00 0.00 0.00 0.00 0.00 0.00 0.00 0.00
MSLP
1025.96 1025.35 1024.75 1024.31 1024.24 1024.43 1024.95 1024.62 1024.80 1022.97 1022.62 1021.46 1021.10 1021.25 1021.30 1021.31 1021.19 1020.91 1020.56 1020.32 1020.20 1020.07 1019.82 1019.50 1019.27 1019.01 1018.90 1018.81 1018.88 1018.59 1018.52 1018.14 1018.00 1018.16 1018.01 1017.93 1017.70 1017.37 1017.30 1017.25 1017.35 1017.42 1017.31 1017.13
1026.54 1026.04 1025.58 1024.70 1023.73 1023.57 1023.62 1023.51 1023.26 1022.69 1022.00 1020.94 1020.88 1021.23 1021.44 1021.26 1021.04 1020.82 1020.60 1020.65 1020.49 1020.25 1019.91 1019.56 1019.19 1019.19 1019.19 1018.97 1018.69 1018.45 1018.21 1018.01 1018.02 1017.89 1017.84 1017.69 1017.83 1017.49 1017.34 1017.37 1017.33 1017.48 1017.53 1017.34
1027.49 1026.87 1025.70 1024.17 1022.60 1022.59 1022.63 1022.35 1022.20 1022.12 1021.15 1020.97 1021.23 1021.43 1021.27 1020.84 1020.75 1020.73 1020.91 1020.69 1020.55 1020.09 1019.85 1019.61 1019.79 1019.59 1019.15 1018.97 1018.93 1018.80 1018.71 1018.76 1018.41 1018.23 1018.02 1018.07 1017.81 1017.66 1017.76 1017.74 1017.69 1017.71 1017.62 1017.47
1028.53 1027.43 1026.38 1022.77 1021.99 1021.69 1021.93 1021.68 1021.21 1021.31 1021.17 1021.32 1021.29 1021.15 1020.92 1020.65 1020.70 1021.28 1021.44 1021.37 1020.43 1019.80 1020.14 1020.07 1019.90 1019.77 1019.53 1019.14 1018.98 1019.09 1019.11 1018.76 1018.31 1018.13 1018.02 1018.01 1017.98 1018.02 1018.01 1017.88 1017.86 1017.89 1017.79 1017.66
1028.76 1027.69 1025.81 1022.82 1021.27 1021.20 1021.33 1021.20 1020.73 1021.03 1021.04 1021.10 1020.80 1020.40 1020.36 1020.63 1020.92 1021.09 1021.34 1021.26 1020.67 1020.68 1020.41 1020.15 1019.84 1019.58 1019.67 1019.19 1019.23 1019.02 1018.93 1018.85 1018.59 1018.54 1018.34 1018.24 1018.24 1018.27 1018.18 1018.15 1018.11 1018.05 1017.89 1017.70
1028.87 1027.90 1025.78 1022.53 1021.21 1020.98 1021.13 1021.09 1020.74 1020.74 1020.97 1021.21 1021.31 1021.49 1021.28 1021.70 1021.92 1021.76 1021.00 1020.66 1020.48 1020.28 1020.31 1020.08 1019.62 1019.62 1019.59 1019.56 1019.42 1019.33 1019.36 1019.24 1019.20 1018.92 1018.62 1018.52 1018.56 1018.51 1018.38 1018.35 1018.25 1018.15 1017.91 1017.66
1028.02 1027.16 1024.72 1021.68 1021.20 1021.11 1021.40 1021.07 1020.46 1020.65 1020.99 1021.18 1021.68 1021.93 1021.95 1021.93 1021.21 1020.41 1020.29 1020.09 1020.12 1020.12 1020.05 1019.87 1019.46 1019.18 1019.18 1019.23 1019.55 1019.33 1019.48 1019.60 1019.39 1019.09 1018.87 1018.74 1018.69 1018.59 1018.54 1018.43 1018.30 1018.28 1018.08 1017.62
1027.23 1026.23 1023.57 1021.25 1021.45 1021.34 1020.90 1020.39 1020.43 1020.53 1020.87 1021.26 1021.65 1021.81 1021.68 1021.05 1020.33 1020.08 1020.06 1020.07 1020.19 1020.25 1020.12 1019.54 1019.29 1019.22 1019.52 1019.72 1019.48 1019.38 1019.52 1019.62 1019.42 1019.19 1018.96 1018.81 1018.79 1018.62 1018.44 1018.37 1018.27 1018.09 1017.74 1017.23
1024.87 1023.34 1021.59 1021.05 1020.65 1020.46 1020.43 1020.54 1020.63 1020.77 1021.23 1021.61 1021.91 1021.85 1021.22 1020.96 1020.45 1019.98 1019.96 1020.01 1020.05 1020.17 1019.97 1019.65 1019.28 1019.05 1019.06 1018.73 1018.82 1019.25 1019.46 1019.47 1019.37 1019.15 1018.93 1018.82 1018.75 1018.53 1018.33 1018.18 1018.10 1017.96 1017.62 1017.12
1023.47 1021.71 1020.98 1020.48 1020.06 1020.36 1020.72 1020.99 1021.40 1021.54 1021.80 1021.71 1021.59 1021.10 1020.84 1020.64 1020.21 1019.84 1019.69 1019.81 1019.80 1019.80 1019.69 1019.55 1019.12 1018.94 1018.76 1018.70 1018.85 1019.06 1019.23 1019.30 1019.23 1019.12 1018.92 1018.75 1018.51 1018.30 1018.19 1018.04 1017.92 1017.71 1017.44 1017.03
1021.99 1021.05 1020.39 1020.34 1020.54 1021.07 1021.44 1021.54 1021.85 1022.20 1022.03 1021.36 1021.25 1021.01 1020.88 1020.60 1020.26 1019.94 1019.76 1019.54 1019.44 1019.55 1019.28 1019.16 1018.88 1018.63 1018.38 1018.41 1018.64 1018.91 1019.07 1019.12 1019.15 1019.12 1018.94 1018.63 1018.33 1018.22 1018.12 1017.89 1017.74 1017.36 1017.12 1016.95
1020.46 1020.19 1020.25 1020.35 1020.66 1021.21 1021.64 1021.96 1021.75 1021.62 1021.60 1021.41 1021.36 1021.09 1020.78 1020.59 1020.37 1020.04 1019.79 1019.39 1019.21 1019.13 1019.06 1018.89 1018.67 1018.39 1018.23 1018.28 1018.52 1018.80 1018.99 1019.08 1019.22 1019.18 1019.02 1018.85 1018.52 1018.17 1017.99 1017.76 1017.50 1017.27 1016.89 1016.56
1019.76 1019.84 1020.17 1020.39 1020.96 1021.52 1021.73 1021.82 1022.00 1022.12 1021.81 1021.44 1021.10 1021.14 1020.90 1020.62 1020.23 1019.84 1019.61 1019.69 1019.29 1019.00 1018.92 1018.78 1018.64 1018.52 1018.36 1018.39 1018.44 1018.77 1018.99 1019.19 1019.28 1019.24 1019.11 1019.01 1018.77 1018.63 1018.33 1017.80 1017.64 1017.31 1016.98 1016.65
1019.89 1020.04 1020.69 1021.33 1021.73 1021.91 1022.21 1022.25 1022.16 1021.90 1021.70 1021.61 1021.42 1021.04 1021.04 1020.96 1020.41 1020.12 1019.72 1019.68 1019.31 1019.11 1018.93 1018.93 1018.82 1018.76 1018.68 1018.55 1018.57 1018.97 1019.05 1019.14 1019.29 1019.32 1019.30 1019.21 1019.03 1018.87 1018.70 1018.64 1018.41 1017.85 1017.21 1016.94
1020.50 1020.71 1021.41 1021.72 1021.96 1022.19 1022.26 1022.19 1022.23 1022.13 1021.97 1021.70 1021.62 1021.57 1021.25 1021.01 1020.77 1020.09 1019.51 1019.47 1019.42 1019.24 1019.20 1019.15 1019.05 1018.93 1018.71 1018.54 1018.54 1018.77 1018.89 1019.00 1019.15 1019.46 1019.52 1019.34 1019.24 1019.06 1018.89 1018.81 1018.65 1018.35 1017.80 1017.19
1021.37 1021.63 1022.01 1022.30 1022.48 1022.48 1022.40 1022.37 1022.41 1022.18 1021.99 1021.66 1021.54 1021.35 1021.29 1021.15 1020.70 1020.00 1019.67 1019.58 1019.72 1019.48 1019.47 1019.28 1019.07 1019.00 1018.78 1018.57 1018.54 1018.58 1018.71 1018.71 1018.82 1019.25 1019.36 1019.34 1019.35 1019.31 1019.19 1019.06 1018.91 1018.71 1018.39 1017.94
1022.26 1022.62 1022.68 1022.74 1022.47 1022.11 1022.02 1022.08 1022.07 1021.85 1021.73 1021.60 1021.32 1021.12 1021.01 1020.73 1020.35 1019.98 1019.90 1019.94 1019.82 1019.71 1019.34 1019.27 1019.31 1018.94 1018.71 1018.61 1018.58 1018.63 1018.74 1018.73 1018.71 1019.00 1019.28 1019.45 1019.53 1019.53 1019.43 1019.35 1019.28 1019.05 1018.79 1018.22
1022.68 1022.68 1022.64 1022.63 1022.48 1022.24 1022.04 1021.76 1021.51 1021.43 1021.45 1021.29 1021.21 1020.94 1020.51 1020.26 1019.94 1019.55 1019.60 1019.68 1019.71 1019.55 1019.27 1019.11 1019.11 1018.89 1018.58 1018.48 1018.39 1018.34 1018.52 1018.91 1018.98 1019.05 1019.28 1019.49 1019.58 1019.59 1019.58 1019.54 1019.43 1019.29 1019.03 1018.41
1023.06 1022.96 1022.83 1022.74 1022.55 1022.37 1022.14 1021.93 1021.54 1021.08 1020.72 1020.59 1020.58 1020.22 1019.94 1019.62 1019.44 1019.31 1019.39 1019.39 1019.49 1019.44 1019.09 1018.86 1018.80 1018.67 1018.59 1018.46 1018.30 1018.21 1018.40 1018.72 1018.84 1018.96 1019.20 1019.46 1019.60 1019.69 1019.76 1019.74 1019.61 1019.43 1019.21 1018.83
1023.29 1023.03 1022.96 1022.81 1022.59 1022.30 1022.12 1021.69 1021.23 1020.66 1020.00 1019.94 1019.52 1019.32 1019.08 1018.79 1018.66 1018.87 1018.92 1018.97 1018.86 1018.80 1018.64 1018.62 1018.66 1018.61 1018.49 1018.41 1018.31 1018.28 1018.45 1018.49 1018.65 1018.86 1019.14 1019.37 1019.59 1019.73 1019.80 1019.81 1019.77 1019.62 1019.38 1019.11
1023.60 1023.15 1022.78 1022.71 1022.41 1021.98 1021.73 1021.23 1020.99 1020.31 1019.47 1019.23 1018.97 1018.48 1018.32 1018.13 1018.27 1018.42 1018.64 1018.54 1018.12 1018.14 1018.24 1018.39 1018.43 1018.38 1018.31 1018.30 1018.19 1018.12 1018.06 1018.14 1018.38 1018.67 1018.99 1019.23 1019.44 1019.60 1019.72 1019.79 1019.79 1019.75 1019.58 1019.27
1023.28 1023.04 1022.61 1022.29 1022.07 1021.59 1020.85 1020.46 1020.10 1019.66 1019.16 1018.52 1017.94 1017.85 1017.69 1017.65 1017.92 1018.01 1017.87 1017.82 1017.62 1017.69 1017.81 1017.96 1018.03 1018.07 1018.11 1018.11 1017.97 1017.89 1017.82 1017.78 1018.04 1018.40 1018.72 1018.95 1019.16 1019.30 1019.43 1019.61 1019.72 1019.71 1019.39 1018.99
1022.86 1022.55 1022.22 1021.92 1021.67 1021.19 1020.36 1019.90 1019.33 1019.02 1018.49 1017.89 1017.44 1017.08 1016.99 1017.10 1017.30 1017.59 1017.44 1017.14 1017.34 1017.56 1017.61 1017.76 1017.78 1017.79 1017.81 1017.87 1017.84 1017.75 1017.65 1017.59 1017.67 1018.06 1018.58 1018.55 1018.61 1018.79 1019.05 1019.35 1019.47 1019.12 1019.01 1018.78
1022.36 1022.02 1021.79 1021.39 1021.09 1020.80 1020.07 1019.01 1018.61 1018.13 1017.63 1017.16 1016.82 1016.58 1016.48 1016.73 1016.90 1016.96 1016.90 1016.94 1017.07 1017.30 1017.44 1017.47 1017.50 1017.52 1017.54 1017.60 1017.62 1017.51 1017.37 1017.29 1017.26 1017.56 1017.77 1017.85 1018.00 1018.13 1018.39 1018.61 1018.75 1018.46 1018.43 1018.41
1021.90 1021.66 1021.33 1020.95 1020.59 1020.07 1019.41 1018.55 1017.93 1017.34 1016.93 1016.55 1016.16 1015.90 1015.92 1016.06 1016.48 1016.63 1016.76 1016.93 1017.09 1017.15 1017.24 1017.25 1017.30 1017.33 1017.36 1017.34 1017.33 1017.30 1017.17 1017.09 1016.95 1017.07 1017.31 1017.52 1017.58 1017.66 1017.66 1017.82 1017.90 1017.94 1017.94 1018.00
1021.50 1021.17 1020.67 1020.30 1019.97 1019.20 1018.51 1018.06 1017.43 1016.65 1016.23 1015.83 1015.62 1015.44 1015.51 1015.75 1016.07 1016.31 1016.37 1016.45 1016.72 1016.96 1017.06 1017.06 1017.11 1017.13 1017.16 1017.20 1017.23 1017.10 1016.97 1016.79 1016.64 1016.59 1016.72 1016.88 1016.95 1017.01 1017.08 1017.14 1017.27 1017.41 1017.46 1017.51
1021.15 1020.99 1020.40 1019.69 1019.01 1018.44 1018.02 1017.41 1016.75 1015.94 1015.59 1015.34 1015.10 1015.07 1015.23 1015.49 1015.80 1016.07 1016.21 1016.41 1016.56 1016.66 1016.80 1016.86 1016.92 1016.92 1016.94 1017.00 1017.02 1016.95 1016.81 1016.58 1016.32 1016.19 1016.13 1016.16 1016.21 1016.25 1016.32 1016.44 1016.57 1016.73 1016.90 1017.05
Thickness
5555 5558 5560 5564 5559 5553 5538 5540 5533 5551 5541 5550 5550 5540 5535 5532 5525 5526 5523 5513 5504 5495 5489 5482 5475 5466 5455 5445 5435 5427 5418 5409 5399 5387 5375 5362 5353 5342 5331 5320 5311 5305 5301 5297
5546 5539 5538 5542 5550 5548 5545 5544 5537 5538 5537 5547 5544 5536 5526 5525 5519 5513 5505 5493 5486 5479 5471 5465 5459 5448 5438 5429 5420 5412 5402 5392 5379 5369 5355 5345 5330 5320 5312 5304 5299 5292 5286 5282
5521 5521 5523 5530 5557 5546 5548 5545 5543 5535 5544 5541 5535 5522 5520 5518 5505 5499 5484 5480 5471 5467 5460 5451 5437 5428 5421 5412 5400 5390 5381 5368 5356 5345 5334 5320 5312 5304 5296 5289 5284 5277 5272 5268
5488 5518 5501 5563 5556 5551 5540 5541 5543 5532 5527 5526 5519 5511 5504 5497 5490 5474 5464 5458 5454 5449 5436 5423 5414 5406 5397 5391 5384 5371 5357 5347 5338 5326 5315 5303 5295 5287 5280 5275 5269 5263 5258 5254
5511 5514 5509 5555 5554 5548 5539 5533 5539 5529 5525 5515 5508 5501 5499 5483 5472 5461 5446 5438 5436 5423 5413 5407 5398 5390 5380 5373 5364 5355 5342 5330 5319 5305 5296 5289 5281 5273 5267 5261 5255 5250 5245 5240
5487 5493 5494 5535 5537 5534 5528 5507 5521 5519 5511 5501 5487 5479 5484 5460 5446 5437 5436 5428 5419 5410 5400 5391 5385 5373 5363 5353 5342 5332 5321 5309 5296 5289 5284 5276 5268 5260 5254 5247 5242 5235 5230 5224
5481 5486 5499 5527 5524 5523 5502 5511 5515 5510 5496 5485 5469 5459 5445 5439 5438 5437 5428 5418 5407 5396 5387 5377 5372 5362 5348 5335 5322 5313 5300 5288 5281 5276 5270 5262 5254 5247 5240 5233 5226 5217 5211 5206
5468 5478 5489 5524 5519 5512 5515 5510 5504 5492 5481 5470 5455 5443 5436 5431 5430 5423 5412 5402 5390 5380 5372 5365 5356 5343 5328 5312 5303 5296 5285 5276 5270 5264 5258 5250 5242 5234 5227 5218 5209 5202 5196 5194
5505 5497 5518 5520 5518 5511 5502 5493 5485 5478 5464 5451 5437 5430 5429 5420 5415 5410 5396 5385 5375 5364 5356 5347 5337 5330 5317 5306 5295 5284 5275 5267 5260 5254 5248 5239 5230 5222 5213 5205 5196 5190 5189 5187
5501 5519 5514 5515 5514 5500 5487 5476 5464 5454 5442 5437 5433 5426 5418 5408 5402 5393 5384 5372 5361 5350 5342 5332 5323 5313 5304 5295 5286 5278 5269 5260 5253 5245 5237 5227 5219 5211 5203 5193 5187 5184 5179 5176
5494 5509 5506 5502 5490 5476 5463 5455 5444 5436 5430 5428 5422 5414 5402 5395 5385 5377 5367 5358 5349 5338 5330 5321 5311 5303 5295 5287 5280 5271 5262 5254 5246 5236 5227 5220 5211 5202 5195 5187 5180 5177 5171 5167
5500 5502 5493 5488 5470 5459 5447 5439 5435 5427 5420 5411 5399 5392 5386 5379 5369 5361 5353 5347 5340 5331 5319 5311 5302 5295 5288 5281 5272 5264 5256 5247 5235 5225 5215 5208 5203 5197 5188 5183 5177 5172 5168 5165
5498 5492 5479 5464 5450 5442 5433 5427 5418 5407 5397 5393 5388 5377 5368 5360 5356 5350 5343 5333 5326 5318 5309 5300 5293 5285 5280 5272 5264 5255 5246 5237 5227 5218 5209 5200 5193 5186 5182 5177 5170 5167 5164 5162
5482 5474 5458 5443 5431 5424 5416 5407 5398 5392 5386 5376 5367 5362 5353 5344 5341 5332 5326 5319 5313 5305 5298 5288 5282 5276 5270 5264 5257 5247 5238 5230 5220 5212 5200 5192 5181 5177 5171 5164 5158 5158 5159 5158
5456 5446 5433 5426 5417 5408 5398 5390 5383 5374 5367 5361 5351 5340 5335 5330 5323 5320 5316 5306 5298 5292 5284 5277 5270 5267 5262 5258 5253 5244 5236 5227 5217 5204 5194 5185 5177 5172 5165 5157 5152 5150 5152 5154
5431 5426 5417 5405 5396 5388 5381 5372 5363 5358 5351 5345 5337 5330 5320 5310 5306 5305 5300 5291 5281 5276 5270 5266 5263 5258 5255 5252 5247 5240 5232 5224 5213 5203 5194 5183 5175 5167 5163 5156 5151 5148 5148 5146
5408 5399 5394 5387 5380 5377 5368 5356 5348 5343 5336 5326 5319 5313 5306 5299 5291 5287 5279 5268 5260 5256 5258 5257 5252 5252 5249 5246 5241 5234 5226 5219 5211 5202 5191 5180 5172 5165 5159 5156 5150 5146 5143 5143
5390 5384 5378 5370 5363 5357 5353 5345 5335 5327 5319 5312 5301 5295 5293 5285 5279 5278 5262 5253 5247 5249 5251 5249 5245 5244 5243 5241 5237 5231 5223 5213 5205 5196 5187 5176 5170 5165 5157 5152 5148 5144 5141 5144
5371 5366 5360 5351 5344 5338 5332 5326 5319 5313 5310 5301 5292 5286 5279 5273 5265 5258 5251 5248 5243 5241 5245 5242 5242 5239 5237 5235 5232 5226 5219 5210 5202 5198 5185 5176 5168 5163 5155 5148 5146 5142 5139 5142
5354 5347 5341 5334 5328 5319 5315 5311 5304 5303 5301 5290 5287 5279 5273 5268 5259 5248 5244 5242 5242 5241 5241 5239 5236 5234 5232 5230 5226 5221 5213 5208 5202 5192 5179 5173 5164 5159 5153 5150 5148 5143 5138 5139
5335 5332 5326 5318 5313 5311 5304 5298 5289 5288 5290 5279 5274 5272 5266 5261 5249 5243 5237 5242 5244 5239 5238 5235 5231 5230 5228 5225 5221 5217 5213 5207 5201 5189 5178 5173 5166 5159 5152 5147 5144 5141 5138 5138
5323 5316 5311 5306 5300 5299 5300 5291 5283 5278 5275 5275 5273 5266 5263 5256 5247 5243 5244 5244 5242 5239 5236 5232 5229 5227 5224 5221 5217 5213 5209 5205 5199 5188 5178 5173 5167 5161 5154 5147 5144 5143 5139 5138
5312 5306 5301 5293 5287 5288 5288 5281 5277 5269 5267 5267 5269 5265 5262 5254 5249 5243 5243 5244 5240 5237 5233 5229 5227 5225 5221 5217 5212 5209 5205 5201 5196 5189 5178 5174 5170 5165 5156 5150 5145 5143 5140 5137
5299 5294 5289 5285 5278 5271 5271 5277 5270 5266 5262 5263 5260 5261 5257 5250 5247 5245 5243 5241 5238 5233 5228 5227 5225 5221 5218 5213 5209 5206 5202 5198 5194 5184 5178 5172 5166 5162 5156 5150 5146 5142 5139 5136
5286 5282 5278 5271 5270 5270 5266 5266 5265 5265 5262 5260 5260 5259 5255 5252 5248 5243 5239 5235 5232 5229 5225 5224 5221 5216 5212 5210 5206 5202 5198 5194 5191 5183 5175 5169 5164 5160 5156 5149 5146 5142 5138 5135
5280 5277 5274 5268 5263 5263 5262 5258 5260 5264 5262 5263 5256 5255 5253 5249 5245 5241 5239 5236 5230 5226 5222 5220 5216 5212 5208 5203 5201 5199 5195 5190 5186 5182 5176 5170 5164 5161 5156 5151 5145 5142 5139 5136
5270 5262 5262 5265 5261 5257 5255 5258 5260 5263 5260 5259 5259 5251 5250 5247 5242 5238 5235 5230 5226 5223 5217 5215 5211 5208 5205 5200 5195 5192 5189 5187 5183 5180 5175 5170 5164 5160 5155 5150 5145 5141 5137 5133